Location: ??????
(55.7522°N, 37.6156°E)
Time: 18:28:00
(UTC+00:00)

Landsat 5 - Pass Details

Date: 14 June 2025
Orbit: 509 x 610 km, 98.1° (Epoch: 12 July)

Event Time Altitude Azimuth Distance (km) Brightness Sun altitude
Rises 21:23:52 0° 12° (NNE) 2,889 8.8 -10.9°
Reaches altitude 10° 21:26:07 10° 8° (N) 1,974 7.7 -10.9°
Maximum altitude 21:30:16 52° 293° (WNW) 759 4.2 -10.9°
Drops below altitude 10° 21:34:21 10° 217° (SW) 1,923 5.6 -10.9°
Enters shadow 21:34:22 10° 217° (SW) 1,932 5.6 -10.9°
